Time,TemperatureF,DewpointF,PressureIn,WindDirection,WindDirectionDegrees,WindSpeedMPH,WindSpeedGustMPH,Humidity,HourlyPrecipIn,Conditions,Clouds,dailyrainin,SoftwareType,DateUTC
2013-02-04 00:00:00,28.8,19.9,29.86,NW,316,23.0,26.0,69,0.00,,,0.00,meteohub,2013-02-04 05:00:00,
2013-02-04 00:01:00,28.6,18.7,29.86,NW,321,19.0,26.0,66,0.00,,,0.00,meteohub,2013-02-04 05:01:00,
2013-02-04 00:06:00,28.8,20.5,29.86,NNW,330,17.0,26.0,71,0.00,,,0.00,meteohub,2013-02-04 05:06:00,
2013-02-04 00:11:00,28.6,19.8,29.86,NW,321,17.0,26.0,69,0.00,,,0.00,meteohub,2013-02-04 05:11:00,
2013-02-04 00:16:00,28.6,20.1,29.85,NW,314,19.0,23.0,70,0.00,,,0.00,meteohub,2013-02-04 05:16:00,
2013-02-04 00:21:00,28.6,19.4,29.85,NNW,332,19.0,22.0,68,0.00,,,0.00,meteohub,2013-02-04 05:21:00,
2013-02-04 00:26:00,28.6,20.1,29.85,NW,312,17.0,22.0,70,0.00,,,0.00,meteohub,2013-02-04 05:26:00,
2013-02-04 00:31:00,28.8,20.3,29.85,NNW,332,16.0,22.0,70,0.00,,,0.00,meteohub,2013-02-04 05:31:00,
2013-02-04 00:36:00,28.6,19.4,29.85,NW,326,19.0,22.0,68,0.00,,,0.00,meteohub,2013-02-04 05:36:00,
2013-02-04 00:41:00,28.6,19.4,29.85,NW,316,18.0,22.0,68,0.00,,,0.00,meteohub,2013-02-04 05:41:00,
2013-02-04 00:46:00,28.8,20.3,29.85,NW,326,14.0,22.0,70,0.00,,,0.00,meteohub,2013-02-04 05:46:00,
2013-02-04 00:51:00,28.8,20.8,29.85,NW,311,21.0,22.0,72,0.00,,,0.00,meteohub,2013-02-04 05:51:00,
2013-02-04 00:56:00,28.8,20.3,29.85,NW,316,18.0,22.0,70,0.00,,,0.00,meteohub,2013-02-04 05:56:00,
2013-02-04 01:01:00,28.8,19.6,29.85,NW,304,22.0,22.0,68,0.00,,,0.00,meteohub,2013-02-04 06:01:00,
2013-02-04 01:06:00,28.8,19.6,29.85,NNW,335,19.0,24.0,68,0.00,,,0.00,meteohub,2013-02-04 06:06:00,
2013-02-04 01:11:00,28.8,19.9,29.85,NW,314,19.0,24.0,69,0.00,,,0.00,meteohub,2013-02-04 06:11:00,
2013-02-04 01:17:00,28.8,19.9,29.85,WNW,293,21.0,24.0,69,0.00,,,0.00,meteohub,2013-02-04 06:17:00,
2013-02-04 01:22:00,28.9,21.0,29.85,NW,312,18.0,25.0,72,0.00,,,0.00,meteohub,2013-02-04 06:22:00,
2013-02-04 01:27:00,28.9,20.5,29.85,West,280,16.0,25.0,70,0.00,,,0.00,meteohub,2013-02-04 06:27:00,
2013-02-04 01:31:00,28.9,20.1,29.85,NW,310,19.0,25.0,69,0.00,,,0.00,meteohub,2013-02-04 06:31:00,
2013-02-04 01:36:00,28.9,21.0,29.85,NW,323,20.0,23.0,72,0.00,,,0.00,meteohub,2013-02-04 06:36:00,
2013-02-04 01:41:00,28.9,21.0,29.85,NW,304,21.0,23.0,72,0.00,,,0.00,meteohub,2013-02-04 06:41:00,
2013-02-04 01:46:00,28.9,19.8,29.85,WNW,298,17.0,23.0,68,0.00,,,0.00,meteohub,2013-02-04 06:46:00,
2013-02-04 01:51:00,28.9,20.1,29.85,WNW,302,18.0,22.0,69,0.00,,,0.00,meteohub,2013-02-04 06:51:00,
2013-02-04 01:56:00,29.1,19.9,29.85,WNW,295,19.0,22.0,68,0.00,,,0.00,meteohub,2013-02-04 06:56:00,
2013-02-04 02:01:00,29.3,20.7,29.85,WNW,299,22.0,22.0,70,0.00,,,0.00,meteohub,2013-02-04 07:01:00,
2013-02-04 02:07:00,29.3,20.5,29.85,NW,306,17.0,24.0,69,0.00,,,0.00,meteohub,2013-02-04 07:07:00,
2013-02-04 02:12:00,29.1,21.2,29.85,NW,310,17.0,24.0,72,0.00,,,0.00,meteohub,2013-02-04 07:12:00,
2013-02-04 02:16:00,29.1,21.2,29.85,NW,325,16.0,24.0,72,0.00,,,0.00,meteohub,2013-02-04 07:16:00,
2013-02-04 02:21:00,29.3,21.4,29.85,NW,319,14.0,22.0,72,0.00,,,0.00,meteohub,2013-02-04 07:21:00,
2013-02-04 02:26:00,29.1,21.9,29.85,NNW,328,16.0,22.0,74,0.00,,,0.00,meteohub,2013-02-04 07:26:00,
2013-02-04 02:31:00,29.3,21.4,29.85,NW,304,16.0,21.0,72,0.00,,,0.00,meteohub,2013-02-04 07:31:00,
2013-02-04 02:36:00,29.5,22.5,29.85,NW,311,16.0,21.0,75,0.00,,,0.00,meteohub,2013-02-04 07:36:00,
2013-02-04 02:41:00,29.1,21.6,29.84,NNW,330,16.0,21.0,73,0.00,,,0.00,meteohub,2013-02-04 07:41:00,
2013-02-04 02:46:00,29.1,21.9,29.84,NW,323,15.0,21.0,74,0.00,,,0.00,meteohub,2013-02-04 07:46:00,
2013-02-04 02:51:00,29.1,21.6,29.84,NNW,332,18.0,21.0,73,0.00,,,0.00,meteohub,2013-02-04 07:51:00,
2013-02-04 02:57:00,29.1,22.5,29.84,NNW,331,15.0,20.0,76,0.00,,,0.00,meteohub,2013-02-04 07:57:00,
2013-02-04 03:02:00,29.3,22.6,29.84,NNW,330,18.0,21.0,76,0.00,,,0.00,meteohub,2013-02-04 08:02:00,
2013-02-04 03:06:00,29.1,21.9,29.84,NW,304,16.0,21.0,74,0.00,,,0.00,meteohub,2013-02-04 08:06:00,
2013-02-04 03:11:00,29.1,23.2,29.84,WSW,247,23.0,23.0,78,0.00,,,0.00,meteohub,2013-02-04 08:11:00,
2013-02-04 03:16:00,28.9,23.0,29.84,WNW,291,14.0,23.0,78,0.00,,,0.00,meteohub,2013-02-04 08:16:00,
2013-02-04 03:21:00,28.8,23.0,29.84,West,273,14.0,23.0,79,0.00,,,0.00,meteohub,2013-02-04 08:21:00,
2013-02-04 03:26:00,28.2,22.6,29.84,West,273,18.0,23.0,79,0.00,,,0.00,meteohub,2013-02-04 08:26:00,
2013-02-04 07:42:00,26.2,18.5,29.94,North,-999,-999.0,-999.0,72,-99.99,,,0.00,meteohub,2013-02-04 12:42:00,
2013-02-04 07:47:00,26.1,19.2,29.94,North,-999,-999.0,-999.0,75,-99.99,,,0.00,meteohub,2013-02-04 12:47:00,
2013-02-04 07:52:00,26.2,17.8,29.94,NW,311,28.0,-999.0,70,0.00,,,0.00,meteohub,2013-02-04 12:52:00,
2013-02-04 07:57:00,26.1,17.6,29.94,NNW,327,24.0,35.0,70,0.00,,,0.00,meteohub,2013-02-04 12:57:00,
2013-02-04 08:02:00,25.9,17.1,29.95,NW,316,21.0,35.0,69,0.00,,,0.00,meteohub,2013-02-04 13:02:00,
2013-02-04 08:07:00,26.1,18.0,29.95,WNW,300,23.0,35.0,71,0.00,,,0.00,meteohub,2013-02-04 13:07:00,
2013-02-04 08:12:00,26.4,18.7,29.95,NW,310,25.0,33.0,72,0.00,,,0.00,meteohub,2013-02-04 13:12:00,
2013-02-04 08:17:00,26.1,16.3,29.96,NW,304,27.0,33.0,66,0.00,,,0.00,meteohub,2013-02-04 13:17:00,
2013-02-04 08:22:00,26.4,16.5,29.96,NW,315,28.0,33.0,66,0.00,,,0.00,meteohub,2013-02-04 13:22:00,
2013-02-04 08:27:00,26.2,15.4,29.96,NW,321,25.0,32.0,63,0.00,,,0.00,meteohub,2013-02-04 13:27:00,
2013-02-04 08:32:00,26.4,16.9,29.96,NW,304,25.0,31.0,67,0.00,,,0.00,meteohub,2013-02-04 13:32:00,
2013-02-04 08:37:00,26.2,16.7,29.96,NW,321,26.0,29.0,67,0.00,,,0.00,meteohub,2013-02-04 13:37:00,
2013-02-04 08:42:00,26.2,16.5,29.96,NW,315,22.0,30.0,66,0.00,,,0.00,meteohub,2013-02-04 13:42:00,
2013-02-04 08:47:00,26.1,16.3,29.97,WNW,297,23.0,30.0,66,0.00,,,0.00,meteohub,2013-02-04 13:47:00,
2013-02-04 08:52:00,26.1,16.0,29.97,NW,308,24.0,33.0,65,0.00,,,0.00,meteohub,2013-02-04 13:52:00,
2013-02-04 08:57:00,26.1,16.9,29.97,WNW,301,20.0,36.0,68,0.00,,,0.00,meteohub,2013-02-04 13:57:00,
2013-02-04 09:02:00,26.1,16.0,29.97,NNW,330,21.0,36.0,65,0.00,,,0.00,meteohub,2013-02-04 14:02:00,
2013-02-04 09:07:00,26.1,16.0,29.97,NW,307,24.0,32.0,65,0.00,,,0.00,meteohub,2013-02-04 14:07:00,
2013-02-04 09:12:00,25.9,15.1,29.97,NW,315,27.0,34.0,63,0.00,,,0.00,meteohub,2013-02-04 14:12:00,
2013-02-04 09:17:00,25.9,14.4,29.97,WNW,298,22.0,34.0,61,0.00,,,0.00,meteohub,2013-02-04 14:17:00,
2013-02-04 09:22:00,26.1,16.7,29.97,NW,304,25.0,34.0,67,0.00,,,0.00,meteohub,2013-02-04 14:22:00,
2013-02-04 09:27:00,26.4,17.2,29.97,NW,321,27.0,34.0,68,0.00,,,0.00,meteohub,2013-02-04 14:27:00,
2013-02-04 09:32:00,26.2,15.4,29.97,NW,319,30.0,34.0,63,0.00,,,0.00,meteohub,2013-02-04 14:32:00,
2013-02-04 09:37:00,26.1,15.3,29.97,NW,321,23.0,32.0,63,0.00,,,0.00,meteohub,2013-02-04 14:37:00,
2013-02-04 09:42:00,26.2,15.8,29.97,NW,306,24.0,32.0,64,0.00,,,0.00,meteohub,2013-02-04 14:42:00,
2013-02-04 09:47:00,26.2,15.8,29.98,NW,309,24.0,32.0,64,0.00,,,0.00,meteohub,2013-02-04 14:47:00,
2013-02-04 09:52:00,26.1,14.9,29.98,NW,321,23.0,31.0,62,0.00,,,0.00,meteohub,2013-02-04 14:52:00,
2013-02-04 09:57:00,26.2,15.1,29.97,NW,304,28.0,31.0,62,0.00,,,0.00,meteohub,2013-02-04 14:57:00,
2013-02-04 10:02:00,26.1,14.0,29.97,NW,319,22.0,31.0,60,0.00,,,0.00,meteohub,2013-02-04 15:02:00,
2013-02-04 10:07:00,26.2,14.5,29.98,NW,304,21.0,31.0,61,0.00,,,0.00,meteohub,2013-02-04 15:07:00,
2013-02-04 10:12:00,26.4,14.0,29.98,NW,308,25.0,31.0,59,0.00,,,0.00,meteohub,2013-02-04 15:12:00,
2013-02-04 10:17:00,26.4,15.1,29.98,NW,307,25.0,29.0,62,0.00,,,0.00,meteohub,2013-02-04 15:17:00,
2013-02-04 10:22:00,26.4,14.0,29.98,NW,311,23.0,32.0,59,0.00,,,0.00,meteohub,2013-02-04 15:22:00,
2013-02-04 10:27:00,26.4,13.3,29.98,NW,304,24.0,32.0,57,0.00,,,0.00,meteohub,2013-02-04 15:27:00,
2013-02-04 10:33:00,26.8,14.7,29.98,WNW,291,25.0,32.0,60,0.00,,,0.00,meteohub,2013-02-04 15:33:00,
2013-02-04 10:38:00,26.4,15.1,29.98,NW,314,22.0,31.0,62,0.00,,,0.00,meteohub,2013-02-04 15:38:00,
2013-02-04 10:43:00,26.6,14.5,29.98,WNW,302,28.0,31.0,60,0.00,,,0.00,meteohub,2013-02-04 15:43:00,
2013-02-04 10:48:00,26.6,14.5,29.97,NW,319,23.0,31.0,60,0.00,,,0.00,meteohub,2013-02-04 15:48:00,
2013-02-04 10:53:00,26.6,14.5,29.98,NW,316,28.0,33.0,60,0.00,,,0.00,meteohub,2013-02-04 15:53:00,
2013-02-04 10:58:00,27.0,15.6,29.98,NW,316,29.0,33.0,62,0.00,,,0.00,meteohub,2013-02-04 15:58:00,
2013-02-04 11:02:00,26.8,13.6,29.98,NW,310,31.0,32.0,57,0.00,,,0.00,meteohub,2013-02-04 16:02:00,
2013-02-04 11:08:00,26.8,13.6,29.98,NW,306,23.0,32.0,57,0.00,,,0.00,meteohub,2013-02-04 16:08:00,
2013-02-04 11:13:00,26.8,14.4,29.98,WNW,301,18.0,32.0,59,0.00,,,0.00,meteohub,2013-02-04 16:13:00,
2013-02-04 11:18:00,26.8,14.0,29.97,WNW,302,24.0,32.0,58,0.00,,,0.00,meteohub,2013-02-04 16:18:00,
2013-02-04 11:23:00,26.8,14.4,29.97,NW,310,27.0,32.0,59,0.00,,,0.00,meteohub,2013-02-04 16:23:00,
2013-02-04 11:28:00,27.0,14.2,29.97,WNW,293,19.0,32.0,58,0.00,,,0.00,meteohub,2013-02-04 16:28:00,
2013-02-04 11:33:00,27.0,14.9,29.96,WNW,301,23.0,30.0,60,0.00,,,0.00,meteohub,2013-02-04 16:33:00,
2013-02-04 11:38:00,27.0,15.3,29.96,WNW,297,19.0,30.0,61,0.00,,,0.00,meteohub,2013-02-04 16:38:00,
2013-02-04 11:43:00,27.0,14.5,29.96,WNW,298,22.0,30.0,59,0.00,,,0.00,meteohub,2013-02-04 16:43:00,
2013-02-04 11:48:00,27.0,13.8,29.95,NW,310,22.0,30.0,57,0.00,,,0.00,meteohub,2013-02-04 16:48:00,
2013-02-04 11:53:00,27.3,15.6,29.95,WNW,298,22.0,31.0,61,0.00,,,0.00,meteohub,2013-02-04 16:53:00,
2013-02-04 11:58:00,27.3,13.6,29.96,WNW,285,23.0,31.0,56,0.00,,,0.00,meteohub,2013-02-04 16:58:00,
2013-02-04 12:03:00,27.3,12.9,29.96,NW,312,27.0,31.0,54,0.00,,,0.00,meteohub,2013-02-04 17:03:00,
2013-02-04 12:08:00,27.3,13.6,29.95,West,269,21.0,31.0,56,0.00,,,0.00,meteohub,2013-02-04 17:08:00,
2013-02-04 12:13:00,27.3,14.2,29.95,NW,306,23.0,31.0,57,0.00,,,0.00,meteohub,2013-02-04 17:13:00,
2013-02-04 12:18:00,27.5,15.4,29.95,WNW,295,28.0,31.0,60,0.00,,,0.00,meteohub,2013-02-04 17:18:00,
2013-02-04 12:23:00,27.7,14.4,29.95,WNW,295,25.0,32.0,57,0.00,,,0.00,meteohub,2013-02-04 17:23:00,
2013-02-04 12:28:00,27.7,13.6,29.95,NW,309,17.0,32.0,55,0.00,,,0.00,meteohub,2013-02-04 17:28:00,
2013-02-04 12:33:00,27.7,14.0,29.95,West,281,23.0,32.0,56,0.00,,,0.00,meteohub,2013-02-04 17:33:00,
2013-02-04 12:38:00,27.7,11.8,29.95,NW,310,23.0,30.0,51,0.00,,,0.00,meteohub,2013-02-04 17:38:00,
2013-02-04 12:43:00,27.9,13.5,29.95,NW,307,22.0,31.0,54,0.00,,,0.00,meteohub,2013-02-04 17:43:00,
2013-02-04 12:48:00,27.9,14.2,29.95,WNW,291,21.0,31.0,56,0.00,,,0.00,meteohub,2013-02-04 17:48:00,
2013-02-04 12:53:00,27.9,13.8,29.95,WNW,302,21.0,31.0,55,0.00,,,0.00,meteohub,2013-02-04 17:53:00,
2013-02-04 12:58:00,27.7,13.6,29.95,NW,304,22.0,31.0,55,0.00,,,0.00,meteohub,2013-02-04 17:58:00,
2013-02-04 13:03:00,27.9,13.5,29.95,WNW,298,25.0,32.0,54,0.00,,,0.00,meteohub,2013-02-04 18:03:00,
2013-02-04 13:08:00,28.0,14.0,29.94,WNW,295,20.0,34.0,55,0.00,,,0.00,meteohub,2013-02-04 18:08:00,
2013-02-04 13:13:00,28.4,14.4,29.95,WNW,300,27.0,34.0,55,0.00,,,0.00,meteohub,2013-02-04 18:13:00,
2013-02-04 13:18:00,28.6,14.5,29.94,WNW,284,22.0,34.0,55,0.00,,,0.00,meteohub,2013-02-04 18:18:00,
2013-02-04 13:23:00,28.4,14.4,29.94,NW,307,26.0,34.0,55,0.00,,,0.00,meteohub,2013-02-04 18:23:00,
2013-02-04 13:28:00,28.4,13.8,29.94,WNW,293,23.0,34.0,54,0.00,,,0.00,meteohub,2013-02-04 18:28:00,
2013-02-04 13:33:00,28.6,14.0,29.94,NW,304,28.0,34.0,54,0.00,,,0.00,meteohub,2013-02-04 18:33:00,
2013-02-04 13:38:00,28.4,14.4,29.95,NW,304,23.0,33.0,55,0.00,,,0.00,meteohub,2013-02-04 18:38:00,
2013-02-04 13:43:00,28.4,13.8,29.95,WNW,297,23.0,33.0,54,0.00,,,0.00,meteohub,2013-02-04 18:43:00,
2013-02-04 13:48:00,28.4,14.7,29.94,West,273,19.0,33.0,56,0.00,,,0.00,meteohub,2013-02-04 18:48:00,
2013-02-04 13:53:00,28.6,14.0,29.94,WNW,293,22.0,32.0,54,0.00,,,0.00,meteohub,2013-02-04 18:53:00,
2013-02-04 13:58:00,29.1,15.4,29.94,NNW,330,16.0,32.0,56,0.00,,,0.00,meteohub,2013-02-04 18:58:00,
2013-02-04 14:03:00,29.1,16.2,29.94,SW,226,21.0,30.0,58,0.00,,,0.00,meteohub,2013-02-04 19:03:00,
2013-02-04 14:08:00,29.1,13.6,29.94,NW,311,23.0,31.0,52,0.00,,,0.00,meteohub,2013-02-04 19:08:00,
2013-02-04 14:13:00,29.1,14.5,29.94,WNW,302,31.0,36.0,54,0.00,,,0.00,meteohub,2013-02-04 19:13:00,
2013-02-04 14:18:00,29.5,14.5,29.94,WNW,282,25.0,36.0,53,0.00,,,0.00,meteohub,2013-02-04 19:18:00,
2013-02-04 14:23:00,29.3,13.5,29.95,WNW,297,28.0,36.0,51,0.00,,,0.00,meteohub,2013-02-04 19:23:00,
2013-02-04 14:28:00,29.1,13.3,29.94,West,273,22.0,39.0,51,0.00,,,0.00,meteohub,2013-02-04 19:28:00,
2013-02-04 14:33:00,29.1,13.3,29.94,West,260,29.0,39.0,51,0.00,,,0.00,meteohub,2013-02-04 19:33:00,
2013-02-04 14:38:00,29.1,13.3,29.95,WNW,301,24.0,39.0,51,0.00,,,0.00,meteohub,2013-02-04 19:38:00,
2013-02-04 14:43:00,28.9,13.5,29.95,NW,308,20.0,36.0,52,0.00,,,0.00,meteohub,2013-02-04 19:43:00,
2013-02-04 14:48:00,29.1,13.6,29.94,NW,310,28.0,36.0,52,0.00,,,0.00,meteohub,2013-02-04 19:48:00,
2013-02-04 14:53:00,29.1,13.3,29.95,South,190,19.0,36.0,51,0.00,,,0.00,meteohub,2013-02-04 19:53:00,
2013-02-04 14:58:00,29.5,14.0,29.95,West,266,19.0,36.0,52,0.00,,,0.00,meteohub,2013-02-04 19:58:00,
2013-02-04 15:03:00,29.5,13.1,29.94,West,265,25.0,36.0,50,0.00,,,0.00,meteohub,2013-02-04 20:03:00,
2013-02-04 15:08:00,29.7,15.1,29.94,NW,309,20.0,29.0,54,0.00,,,0.00,meteohub,2013-02-04 20:08:00,
2013-02-04 15:13:00,29.7,13.8,29.94,NW,305,24.0,32.0,51,0.00,,,0.00,meteohub,2013-02-04 20:13:00,
2013-02-04 15:18:00,29.8,14.0,29.94,NW,308,19.0,32.0,51,0.00,,,0.00,meteohub,2013-02-04 20:18:00,
2013-02-04 15:23:00,30.2,14.7,29.94,West,260,20.0,31.0,52,0.00,,,0.00,meteohub,2013-02-04 20:23:00,
2013-02-04 15:28:00,30.4,13.5,29.94,West,271,20.0,31.0,49,0.00,,,0.00,meteohub,2013-02-04 20:28:00,
2013-02-04 15:33:00,29.8,13.5,29.94,WNW,293,25.0,28.0,50,0.00,,,0.00,meteohub,2013-02-04 20:33:00,
2013-02-04 15:38:00,29.8,12.6,29.94,WNW,293,23.0,32.0,48,0.00,,,0.00,meteohub,2013-02-04 20:38:00,
2013-02-04 15:43:00,29.8,14.4,29.94,WNW,301,30.0,32.0,52,0.00,,,0.00,meteohub,2013-02-04 20:43:00,
2013-02-04 15:48:00,29.7,13.3,29.94,WNW,282,21.0,33.0,50,0.00,,,0.00,meteohub,2013-02-04 20:48:00,
2013-02-04 15:53:00,29.7,13.8,29.93,West,271,19.0,34.0,51,0.00,,,0.00,meteohub,2013-02-04 20:53:00,
2013-02-04 15:58:00,29.8,12.9,29.93,WNW,293,24.0,34.0,49,0.00,,,0.00,meteohub,2013-02-04 20:58:00,
2013-02-04 16:03:00,30.2,15.6,29.93,WNW,293,24.0,30.0,54,0.00,,,0.00,meteohub,2013-02-04 21:03:00,
2013-02-04 16:08:00,30.4,14.0,29.94,ESE,115,18.0,29.0,50,0.00,,,0.00,meteohub,2013-02-04 21:08:00,
2013-02-04 16:13:00,30.4,13.5,29.94,WNW,295,28.0,29.0,49,0.00,,,0.00,meteohub,2013-02-04 21:13:00,
2013-02-04 16:18:00,30.4,12.6,29.94,WNW,293,24.0,29.0,47,0.00,,,0.00,meteohub,2013-02-04 21:18:00,
2013-02-04 16:23:00,30.2,12.4,29.93,NW,306,26.0,31.0,47,0.00,,,0.00,meteohub,2013-02-04 21:23:00,
2013-02-04 16:28:00,30.4,12.6,29.93,WNW,285,22.0,33.0,47,0.00,,,0.00,meteohub,2013-02-04 21:28:00,
2013-02-04 16:33:00,30.6,13.6,29.94,West,264,23.0,33.0,49,0.00,,,0.00,meteohub,2013-02-04 21:33:00,
2013-02-04 16:38:00,30.4,13.1,29.94,West,280,24.0,32.0,48,0.00,,,0.00,meteohub,2013-02-04 21:38:00,
2013-02-04 16:43:00,30.2,12.9,29.94,West,280,23.0,29.0,48,0.00,,,0.00,meteohub,2013-02-04 21:43:00,
2013-02-04 16:48:00,30.4,13.1,29.94,WNW,293,27.0,29.0,48,0.00,,,0.00,meteohub,2013-02-04 21:48:00,
2013-02-04 16:53:00,30.2,12.4,29.94,NW,304,27.0,34.0,47,0.00,,,0.00,meteohub,2013-02-04 21:53:00,
2013-02-04 16:58:00,30.2,12.4,29.94,WNW,295,23.0,34.0,47,0.00,,,0.00,meteohub,2013-02-04 21:58:00,
2013-02-04 17:03:00,30.0,12.7,29.95,NW,306,19.0,34.0,48,0.00,,,0.00,meteohub,2013-02-04 22:03:00,
2013-02-04 17:08:00,30.0,15.4,29.95,NW,306,23.0,35.0,54,0.00,,,0.00,meteohub,2013-02-04 22:08:00,
2013-02-04 17:13:00,30.0,13.1,29.96,NW,310,18.0,35.0,49,0.00,,,0.00,meteohub,2013-02-04 22:13:00,
2013-02-04 17:18:00,30.0,14.5,29.96,West,263,27.0,35.0,52,0.00,,,0.00,meteohub,2013-02-04 22:18:00,
2013-02-04 17:23:00,30.0,14.5,29.96,West,259,23.0,34.0,52,0.00,,,0.00,meteohub,2013-02-04 22:23:00,
2013-02-04 17:28:00,30.0,14.0,29.96,WNW,299,22.0,34.0,51,0.00,,,0.00,meteohub,2013-02-04 22:28:00,
2013-02-04 17:34:00,30.0,14.9,29.97,WNW,298,26.0,39.0,53,0.00,,,0.00,meteohub,2013-02-04 22:34:00,
2013-02-04 17:39:00,30.0,13.1,29.97,WNW,300,26.0,39.0,49,0.00,,,0.00,meteohub,2013-02-04 22:39:00,
2013-02-04 17:44:00,30.2,15.1,29.97,NW,308,27.0,39.0,53,0.00,,,0.00,meteohub,2013-02-04 22:44:00,
2013-02-04 17:49:00,30.0,13.6,29.97,WNW,298,25.0,30.0,50,0.00,,,0.00,meteohub,2013-02-04 22:49:00,
2013-02-04 17:54:00,29.8,14.0,29.97,WSW,248,25.0,30.0,51,0.00,,,0.00,meteohub,2013-02-04 22:54:00,
2013-02-04 17:59:00,29.8,13.5,29.98,West,272,29.0,33.0,50,0.00,,,0.00,meteohub,2013-02-04 22:59:00,
2013-02-04 18:04:00,29.8,12.9,29.98,WNW,288,22.0,33.0,49,0.00,,,0.00,meteohub,2013-02-04 23:04:00,
2013-02-04 18:09:00,29.8,13.5,29.98,WNW,295,23.0,32.0,50,0.00,,,0.00,meteohub,2013-02-04 23:09:00,
2013-02-04 18:14:00,29.8,13.5,29.98,WNW,290,21.0,33.0,50,0.00,,,0.00,meteohub,2013-02-04 23:14:00,
2013-02-04 18:19:00,29.8,13.5,29.99,WNW,294,26.0,33.0,50,0.00,,,0.00,meteohub,2013-02-04 23:19:00,
2013-02-04 18:24:00,29.8,12.9,29.99,WNW,300,21.0,32.0,49,0.00,,,0.00,meteohub,2013-02-04 23:24:00,
2013-02-04 18:29:00,29.8,14.0,29.99,WSW,257,22.0,33.0,51,0.00,,,0.00,meteohub,2013-02-04 23:29:00,
2013-02-04 18:34:00,29.8,14.7,29.99,WNW,293,25.0,33.0,53,0.00,,,0.00,meteohub,2013-02-04 23:34:00,
2013-02-04 18:39:00,29.8,12.0,29.99,West,276,23.0,33.0,47,0.00,,,0.00,meteohub,2013-02-04 23:39:00,
2013-02-04 18:44:00,29.8,13.5,30.00,WNW,287,24.0,33.0,50,0.00,,,0.00,meteohub,2013-02-04 23:44:00,
2013-02-04 18:49:00,29.8,13.5,30.00,WNW,287,26.0,33.0,50,0.00,,,0.00,meteohub,2013-02-04 23:49:00,
2013-02-04 18:54:00,29.8,12.9,30.00,NE,44,25.0,33.0,49,0.00,,,0.00,meteohub,2013-02-04 23:54:00,
2013-02-04 18:59:00,29.7,11.8,30.00,WNW,285,29.0,33.0,47,0.00,,,0.00,meteohub,2013-02-04 23:59:00,
2013-02-04 19:04:00,29.8,12.6,30.00,NW,308,27.0,33.0,48,0.00,,,0.00,meteohub,2013-02-05 00:04:00,
2013-02-04 19:09:00,30.0,14.5,30.00,WNW,290,19.0,32.0,52,0.00,,,0.00,meteohub,2013-02-05 00:09:00,
2013-02-04 19:14:00,29.8,13.5,30.00,WNW,286,24.0,32.0,50,0.00,,,0.00,meteohub,2013-02-05 00:14:00,
2013-02-04 19:19:00,29.8,11.1,30.00,WNW,291,22.0,35.0,45,0.00,,,0.00,meteohub,2013-02-05 00:19:00,
2013-02-04 19:24:00,29.8,13.5,30.00,WNW,288,28.0,36.0,50,0.00,,,0.00,meteohub,2013-02-05 00:24:00,
2013-02-04 19:29:00,30.0,12.7,30.01,WNW,289,34.0,38.0,48,0.00,,,0.00,meteohub,2013-02-05 00:29:00,
2013-02-04 19:34:00,30.0,14.9,30.01,WNW,299,27.0,43.0,53,0.00,,,0.00,meteohub,2013-02-05 00:34:00,
2013-02-04 19:39:00,30.0,14.9,30.01,WNW,293,19.0,43.0,53,0.00,,,0.00,meteohub,2013-02-05 00:39:00,
2013-02-04 19:44:00,30.0,13.6,30.01,WNW,301,27.0,43.0,50,0.00,,,0.00,meteohub,2013-02-05 00:44:00,
2013-02-04 19:49:00,30.0,13.6,30.01,NW,304,34.0,38.0,50,0.00,,,0.00,meteohub,2013-02-05 00:49:00,
2013-02-04 19:54:00,30.0,14.0,30.01,NW,311,28.0,38.0,51,0.00,,,0.00,meteohub,2013-02-05 00:54:00,
2013-02-04 19:59:00,29.8,12.6,30.02,WNW,297,36.0,38.0,48,0.00,,,0.00,meteohub,2013-02-05 00:59:00,
2013-02-04 20:04:00,29.8,13.5,30.02,NW,324,25.0,38.0,50,0.00,,,0.00,meteohub,2013-02-05 01:04:00,
2013-02-04 20:09:00,29.8,14.7,30.02,NW,316,25.0,39.0,53,0.00,,,0.00,meteohub,2013-02-05 01:09:00,
2013-02-04 20:14:00,29.7,12.4,30.03,WNW,300,29.0,39.0,48,0.00,,,0.00,meteohub,2013-02-05 01:14:00,
2013-02-04 20:19:00,29.7,13.8,30.02,WNW,297,27.0,38.0,51,0.00,,,0.00,meteohub,2013-02-05 01:19:00,
2013-02-04 20:24:00,29.8,14.0,30.02,WNW,297,30.0,35.0,51,0.00,,,0.00,meteohub,2013-02-05 01:24:00,
2013-02-04 20:29:00,29.8,12.0,30.02,NW,319,26.0,37.0,47,0.00,,,0.00,meteohub,2013-02-05 01:29:00,
2013-02-04 20:34:00,29.8,12.6,30.03,NW,308,30.0,38.0,48,0.00,,,0.00,meteohub,2013-02-05 01:34:00,
2013-02-04 20:39:00,29.8,15.3,30.03,NW,324,25.0,41.0,54,0.00,,,0.00,meteohub,2013-02-05 01:39:00,
2013-02-04 20:44:00,29.7,13.3,30.03,NW,315,31.0,41.0,50,0.00,,,0.00,meteohub,2013-02-05 01:44:00,
2013-02-04 20:49:00,29.5,12.7,30.03,NW,325,27.0,37.0,49,0.00,,,0.00,meteohub,2013-02-05 01:49:00,
2013-02-04 20:54:00,29.5,13.1,30.03,NW,308,25.0,37.0,50,0.00,,,0.00,meteohub,2013-02-05 01:54:00,
2013-02-04 20:59:00,29.5,13.1,30.03,NW,314,26.0,36.0,50,0.00,,,0.00,meteohub,2013-02-05 01:59:00,
2013-02-04 21:04:00,29.5,13.1,30.04,NW,319,29.0,33.0,50,0.00,,,0.00,meteohub,2013-02-05 02:04:00,
2013-02-04 21:09:00,29.3,13.5,30.04,NW,325,23.0,31.0,51,0.00,,,0.00,meteohub,2013-02-05 02:09:00,
2013-02-04 21:15:00,29.3,12.0,30.04,NNW,329,21.0,31.0,48,0.00,,,0.00,meteohub,2013-02-05 02:15:00,
2013-02-04 21:20:00,29.5,14.0,30.04,NW,315,22.0,30.0,52,0.00,,,0.00,meteohub,2013-02-05 02:20:00,
2013-02-04 21:25:00,29.3,13.5,30.04,WNW,300,24.0,30.0,51,0.00,,,0.00,meteohub,2013-02-05 02:25:00,
2013-02-04 21:30:00,29.3,13.8,30.04,NW,314,22.0,28.0,52,0.00,,,0.00,meteohub,2013-02-05 02:30:00,
2013-02-04 21:35:00,29.3,13.5,30.04,NW,307,23.0,28.0,51,0.00,,,0.00,meteohub,2013-02-05 02:35:00,
2013-02-04 21:40:00,29.3,14.7,30.04,WNW,299,16.0,27.0,54,0.00,,,0.00,meteohub,2013-02-05 02:40:00,
2013-02-04 21:45:00,29.3,13.5,30.04,West,260,19.0,28.0,51,0.00,,,0.00,meteohub,2013-02-05 02:45:00,
2013-02-04 21:50:00,29.1,13.6,30.04,NW,313,25.0,28.0,52,0.00,,,0.00,meteohub,2013-02-05 02:50:00,
2013-02-04 21:55:00,29.1,13.6,30.04,WNW,290,18.0,28.0,52,0.00,,,0.00,meteohub,2013-02-05 02:55:00,
2013-02-04 22:00:00,29.1,15.8,30.04,NW,310,21.0,29.0,57,0.00,,,0.00,meteohub,2013-02-05 03:00:00,
2013-02-04 22:05:00,29.1,14.5,30.04,WNW,298,17.0,29.0,54,0.00,,,0.00,meteohub,2013-02-05 03:05:00,
2013-02-04 22:10:00,29.3,14.7,30.04,NW,304,17.0,27.0,54,0.00,,,0.00,meteohub,2013-02-05 03:10:00,
2013-02-04 22:15:00,29.1,13.3,30.03,WNW,301,15.0,24.0,51,0.00,,,0.00,meteohub,2013-02-05 03:15:00,
2013-02-04 22:20:00,29.1,14.9,30.03,WNW,295,15.0,23.0,55,0.00,,,0.00,meteohub,2013-02-05 03:20:00,
2013-02-04 22:25:00,29.3,14.4,30.03,NW,308,14.0,23.0,53,0.00,,,0.00,meteohub,2013-02-05 03:25:00,
2013-02-04 22:30:00,29.1,13.3,30.03,WNW,288,21.0,21.0,51,0.00,,,0.00,meteohub,2013-02-05 03:30:00,
2013-02-04 22:35:00,29.1,13.6,30.03,WNW,299,17.0,23.0,52,0.00,,,0.00,meteohub,2013-02-05 03:35:00,
2013-02-04 22:40:00,29.1,14.9,30.03,West,274,12.0,23.0,55,0.00,,,0.00,meteohub,2013-02-05 03:40:00,
2013-02-04 22:45:00,29.1,14.5,30.03,West,278,13.0,23.0,54,0.00,,,0.00,meteohub,2013-02-05 03:45:00,
2013-02-04 22:50:00,29.1,14.2,30.03,WNW,294,17.0,20.0,53,0.00,,,0.00,meteohub,2013-02-05 03:50:00,
2013-02-04 22:55:00,29.1,14.2,30.04,West,281,13.0,20.0,53,0.00,,,0.00,meteohub,2013-02-05 03:55:00,
2013-02-04 23:00:00,29.3,15.1,30.04,NW,310,13.0,20.0,55,0.00,,,0.00,meteohub,2013-02-05 04:00:00,
2013-02-04 23:05:00,29.3,16.3,30.04,NW,316,11.0,20.0,58,0.00,,,0.00,meteohub,2013-02-05 04:05:00,
2013-02-04 23:10:00,29.3,15.1,30.04,WNW,302,11.0,20.0,55,0.00,,,0.00,meteohub,2013-02-05 04:10:00,
2013-02-04 23:15:00,29.3,15.6,30.04,NW,304,15.0,20.0,56,0.00,,,0.00,meteohub,2013-02-05 04:15:00,
2013-02-04 23:20:00,29.3,15.6,30.04,NW,311,19.0,19.0,56,0.00,,,0.00,meteohub,2013-02-05 04:20:00,
2013-02-04 23:25:00,29.3,15.6,30.04,NW,306,14.0,21.0,56,0.00,,,0.00,meteohub,2013-02-05 04:25:00,
2013-02-04 23:30:00,29.3,15.1,30.04,WNW,282,12.0,21.0,55,0.00,,,0.00,meteohub,2013-02-05 04:30:00,
2013-02-04 23:35:00,29.5,15.8,30.05,NW,304,13.0,20.0,56,0.00,,,0.00,meteohub,2013-02-05 04:35:00,
2013-02-04 23:40:00,29.5,16.2,30.05,WNW,293,12.0,19.0,57,0.00,,,0.00,meteohub,2013-02-05 04:40:00,
2013-02-04 23:45:00,29.7,17.4,30.05,WNW,300,18.0,22.0,60,0.00,,,0.00,meteohub,2013-02-05 04:45:00,
2013-02-04 23:50:00,29.7,16.3,30.04,NW,315,20.0,23.0,57,0.00,,,0.00,meteohub,2013-02-05 04:50:00,
2013-02-04 23:55:00,29.8,17.2,30.04,WNW,283,17.0,23.0,59,0.00,,,0.00,meteohub,2013-02-05 04:55:00,